User: anonymous   Login
Location: Antichan
(42.9728°N, 0.6667°E)
Time: 14:02:21
(UTC+00:00)
Language:

Cosmos 405 Rocket - Orbit

View from above orbital plane
View from above orbital plane
View from above satellite
View from above satellite

Ground track
Ground track

The orbit data is extracted from the following two-line orbital elements,

1  5118U 71028B   20294.92395015 +.00000878 +00000-0 +44690-4 0  9994
2  5118 081.2582 192.2164 0047468 141.8080 218.6528 15.14691582689095
Epoch (UTC): 20 October 2020 22:10:29
Eccentricity: 0.0047468
inclination: 81.2582°
perigee height: 489 km
apogee height: 554 km
right ascension of ascending node: 192.2164°
argument of perigee: 141.8080°
revolutions per day: 15.14691582
mean anomaly at epoch: 218.6528°
orbit number at epoch: 68909

The dashed part of the orbit path shows where the satellite is in the earth's shadow,  

DLR